Palma de Mallorca, Spain

11:00 AM CEST on July 21, 2017 (GMT +0200)
Palma De Mallorca

Weather History for LEPA - March, 2012

Change the Weather History Date:

Sunday, March 25, 2012

  Actual Average Record
Temperature  
Mean Temperature 54 °F -  
Max Temperature 70 °F 65 °F 71 °F (2001)
Min Temperature 38 °F 45 °F 37 °F (2003)
Degree Days  
Heating Degree Days 11    
Growing Degree Days 4 (Base 50)    
Moisture  
Dew Point 46 °F    
Average Humidity 76    
Maximum Humidity 100    
Minimum Humidity 45    
Precipitation  
Precipitation 0.00 in 0.05 in - ()
Sea Level Pressure  
Sea Level Pressure 30.25 in    
Wind  
Wind Speed 3 mph ()    
Max Wind Speed 13 mph    
Max Gust Speed -    
Visibility 6.6 miles    
Events      
Averages and records for this station are not official NWS values.
T = Trace of Precipitation, MM = Missing Value Source: Averaged Metar Reports

Daily Weather History Graph

Daily Weather History Graph

Search for Another Location

Airport or City:

Trip Planner

Search our weather history database for the weather conditions in past years. The results will help you decide how hot, cold, wet, or windy it might be!

Date:

Astronomy

Mar. 25, 2012 Rise Set
Actual Time 7:44 AM CEST 8:06 PM CEST
Civil Twilight 7:17 AM CEST 8:33 PM CEST
Nautical Twilight 6:45 AM CEST 9:05 PM CEST
Astronomical Twilight 6:13 AM CEST 9:37 PM CEST
Moon 8:48 AM CEST (3/25) 11:06 PM CEST (3/25)
Length of Visible Light 13h 16m
Length of Day
12h 22m
Waxing Crescent, 7% of the Moon is Illuminated
Mar 25
Waxing Crescent
Mar 30
First Quarter
Apr 6
Full
Apr 13
Last Quarter
Apr 21
New

Hourly Weather History & Observations

Time (CEST) Temp. Dew Point Humidity Pressure Visibility Wind Dir Wind Speed Gust Speed Precip Events Conditions
12:00 AM 48.2 °F 46.4 °F 93% 30.24 in 6.2 mi Calm Calm - N/A   Partly Cloudy
12:30 AM 50.0 °F 48.2 °F 94% 30.24 in 6.2 mi Variable 1.2 mph - N/A   Partly Cloudy
1:00 AM 46 °F 45 °F 95% 30.26 in 9 mi NNE 2.3 mph - -   Scattered Clouds
1:00 AM 46.4 °F 44.6 °F 93% 30.24 in 6.2 mi NE 2.3 mph - N/A   Partly Cloudy
1:30 AM 44.6 °F 42.8 °F 93% 30.24 in 6.2 mi ENE 2.3 mph - N/A   Partly Cloudy
3:00 AM 44.6 °F 42.8 °F 93% 30.24 in 5.6 mi Variable 1.2 mph - N/A   Partly Cloudy
3:30 AM 42.8 °F 42.8 °F 100% 30.24 in 5.0 mi NE 2.3 mph - N/A   Partly Cloudy
4:00 AM 42.8 °F 42.8 °F 100% 30.24 in 5.0 mi Calm Calm - N/A   Partly Cloudy
4:30 AM 42.8 °F 41.0 °F 93% 30.24 in 4.3 mi Variable 1.2 mph - N/A   Partly Cloudy
5:00 AM 41.0 °F 41.0 °F 100% 30.24 in 5.0 mi Calm Calm - N/A   Partly Cloudy
5:30 AM 42.8 °F 41.0 °F 93% 30.24 in 5.0 mi Calm Calm - N/A   Partly Cloudy
6:00 AM 39.2 °F 39.2 °F 100% 30.24 in 5.0 mi Calm Calm - N/A   Partly Cloudy
6:30 AM 41.0 °F 41.0 °F 100% 30.24 in 5.0 mi Calm Calm - N/A   Partly Cloudy
7:00 AM 39.2 °F 39.2 °F 100% 30.24 in 5.0 mi NE 1.2 mph - N/A   Partly Cloudy
7:30 AM 39.2 °F 39.2 °F 100% 30.24 in 5.6 mi NNE 2.3 mph - N/A   Partly Cloudy
8:00 AM 40 °F 38 °F 91% 30.27 in 9 mi Calm Calm - -   Scattered Clouds
8:00 AM 41.0 °F 39.2 °F 93% 30.24 in 5.0 mi Variable 2.3 mph - N/A   Partly Cloudy
8:30 AM 42.8 °F 41.0 °F 93% 30.27 in 5.6 mi Variable 1.2 mph - N/A   Partly Cloudy
9:00 AM 44.6 °F 44.6 °F 100% 30.27 in - Calm Calm - N/A   Clear
9:30 AM 48.2 °F 46.4 °F 93% 30.27 in - Calm Calm - N/A   Clear
10:00 AM 53.6 °F 48.2 °F 82% 30.27 in - Calm Calm - N/A   Clear
10:30 AM 57.2 °F 50.0 °F 77% 30.27 in - Calm Calm - N/A   Clear
11:00 AM 60.8 °F 50.0 °F 68% 30.27 in - Calm Calm - N/A   Clear
11:30 AM 62.6 °F 50.0 °F 63% 30.30 in - NE 4.6 mph - N/A   Clear
12:00 PM 64.4 °F 50.0 °F 59% 30.27 in - ENE 4.6 mph - N/A   Clear
12:30 PM 66.2 °F 50.0 °F 56% 30.27 in - ENE 4.6 mph - N/A   Clear
1:00 PM 66.2 °F 50.0 °F 56% 30.27 in 6.2 mi NNE 2.3 mph - N/A   Partly Cloudy
1:30 PM 68.0 °F 50.0 °F 52% 30.27 in 6.2 mi SW 11.5 mph - N/A   Partly Cloudy
2:00 PM 66 °F 50 °F 45% 30.27 in 19 mi SW 11.5 mph - -   Scattered Clouds
2:00 PM 66.2 °F 50.0 °F 56% 30.27 in 6.2 mi SW 9.2 mph - N/A   Partly Cloudy
2:30 PM 66.2 °F 50.0 °F 56% 30.24 in 6.2 mi WSW 10.4 mph - N/A   Partly Cloudy
3:00 PM 66.2 °F 48.2 °F 52% 30.24 in 6.2 mi SW 12.7 mph - N/A   Partly Cloudy
3:30 PM 66.2 °F 48.2 °F 52% 30.24 in 6.2 mi SW 11.5 mph - N/A   Partly Cloudy
4:00 PM 66.2 °F 50.0 °F 56% 30.24 in 6.2 mi SW 11.5 mph - N/A   Partly Cloudy
4:30 PM 64.4 °F 50.0 °F 59% 30.24 in 6.2 mi SW 11.5 mph - N/A   Partly Cloudy
5:00 PM 64.4 °F 50.0 °F 59% 30.24 in 6.2 mi SW 11.5 mph - N/A   Partly Cloudy
5:30 PM 64.4 °F 50.0 °F 59% 30.24 in 6.2 mi SW 9.2 mph - N/A   Partly Cloudy
6:00 PM 64.4 °F 46.4 °F 52% 30.24 in 6.2 mi SW 8.1 mph - N/A   Partly Cloudy
6:30 PM 64.4 °F 44.6 °F 49% 30.24 in 6.2 mi WSW 6.9 mph - N/A   Partly Cloudy
7:00 PM 64.4 °F 44.6 °F 49% 30.24 in 6.2 mi WSW 6.9 mph - N/A   Partly Cloudy
7:30 PM 62.6 °F 46.4 °F 55% 30.24 in 6.2 mi SSW 4.6 mph - N/A   Partly Cloudy
8:00 PM 61 °F 46 °F 48% 30.26 in 19 mi SW 3.5 mph - -   Scattered Clouds
8:00 PM 60.8 °F 46.4 °F 59% 30.24 in 6.2 mi Variable 1.2 mph - N/A   Partly Cloudy
8:30 PM 59.0 °F 46.4 °F 63% 30.24 in 6.2 mi Calm Calm - N/A   Partly Cloudy
9:00 PM 55.4 °F 48.2 °F 77% 30.27 in 6.2 mi NE 3.5 mph - N/A   Partly Cloudy
9:30 PM 53.6 °F 46.4 °F 77% 30.27 in 6.2 mi ENE 2.3 mph - N/A   Partly Cloudy
10:00 PM 53.6 °F 48.2 °F 82% 30.27 in 6.2 mi ENE 3.5 mph - N/A   Partly Cloudy
10:30 PM 53.6 °F 48.2 °F 82% 30.27 in 6.2 mi Calm Calm - N/A   Partly Cloudy
11:00 PM 53.6 °F 50.0 °F 88% 30.27 in 6.2 mi Calm Calm - N/A   Partly Cloudy
11:30 PM 53.6 °F 48.2 °F 82% 30.27 in 6.2 mi NE 1.2 mph - N/A   Partly Cloudy
12:00 AM 48.2 °F 46.4 °F 93% 30.30 in 6.2 mi Variable 1.2 mph - N/A   Partly Cloudy
12:30 AM 48.2 °F 46.4 °F 93% 30.27 in 6.2 mi Calm Calm - N/A   Partly Cloudy